#timestamp,LO_Frequency,Hit,StdDev 
1569553215.3,286047001.2,N
1569553235.1,286046999.0,N
1569553255.8,286047001.2,N
1569553275.7,286047001.2,N
1569553295.5,286047001.0,N
1569553315.4,286046999.5,N
1569553335.2,286046996.7,N
1569553355.0,286046999.4,N
1569553355.9,286046999.4,N
1569553375.8,286046999.5,N
1569553395.6,286046996.5,N
1569553415.4,286046999.4,N
1569553435.3,286046998.2,N
1569553455.1,286047001.1,N
1569553475.9,286046998.5,N
1569553495.7,286047002.7,N
1569553515.5,286047002.6,N
1569553535.4,286046998.2,N
1569553555.2,286047000.0,N
1569553575.0,286047000.0,N
1569553576.0,286047000.0,N
1569553595.8,286047002.5,N
1569553615.6,286047001.0,N
1569553635.5,286046998.8,N
1569553655.3,286047001.2,N
1569553675.1,286047000.3,N
1569553695.9,286047004.4,N
1569553715.7,286047004.3,N
1569553735.6,286047003.5,N
1569553755.4,286047004.1,N
1569553775.2,286047002.9,N
1569553795.1,286047004.9,N
1569553796.0,286047004.9,N
1569553815.8,286047005.5,N
1569553835.6,286047004.0,N
1569553855.5,286047002.6,N
1569553875.3,286047001.6,N
1569553895.2,286047003.9,N
1569553915.9,286047002.5,N
1569553935.7,286047001.6,N
1569553955.6,286046999.8,N
1569553975.4,286047000.2,N
1569553995.2,286047002.7,N
1569554015.1,286047001.7,N
1569554016.0,286047001.7,N
1569554035.8,286047001.3,N
1569554055.7,286047004.1,N
1569554075.5,286047006.9,Y
1569554095.3,286047006.0,P
1569554115.2,286047005.4,N
1569554135.0,286047005.4,P
1569554135.9,286047005.4,Y
1569554155.8,286046999.0,P
1569554175.6,286046999.3,N
1569554195.5,286046999.6,N
1569554215.3,286046998.0,N
1569554235.1,286046996.2,N
1569554255.9,286046997.9,N
1569554275.7,286046997.1,N
1569554295.5,286046997.1,N
1569554315.4,286046997.0,N
1569554335.2,286046996.8,N
1569554355.1,286046996.3,N
1569554356.0,286046996.3,N
1569554375.8,286046995.3,N
1569554395.6,286046996.6,N
1569554415.5,286046998.9,N
1569554435.3,286046998.7,N
1569554455.1,286046998.8,N
1569554475.9,286046998.8,N
1569554495.7,286046998.7,N
1569554515.6,286046998.4,N
1569554535.4,286046998.3,N
1569554555.2,286046998.2,N
1569554575.1,286047000.8,N
1569554576.0,286047000.8,N
1569554595.8,286047001.2,N
1569554615.7,286047001.2,N
1569554635.5,286046998.7,N
1569554655.3,286046998.4,N
1569554675.2,286046998.9,N
1569554695.0,286046998.9,N
1569554695.9,286046998.9,N
1569554715.8,286046998.9,N
1569554735.6,286046997.1,N
1569554755.4,286046996.9,N
1569554775.3,286046999.1,N
1569554795.1,286046996.9,N
1569554815.9,286046995.3,Y
1569554835.7,286046997.5,P
1569554855.5,286046997.8,P
1569554875.4,286046997.8,P
1569554895.2,286046995.1,Y
1569554915.0,286046999.2,P
1569554916.0,286046999.2,N
1569554935.8,286046997.9,P
1569554955.6,286046997.1,Y
1569554975.5,286046998.4,P
1569554995.3,286047001.2,P
1569555045.2,286046996.7,E
1569555055.1,286046998.4,N
1569555056.0,286046998.4,P
1569555075.8,286047000.3,P
1569555095.7,286047000.7,N
1569555115.5,286047000.4,N
1569555135.4,286047002.5,N
1569555155.2,286047000.3,N
1569555175.0,286046998.6,N
1569555175.9,286046998.6,N
1569555195.8,286046998.6,N
1569555215.6,286047001.1,N
1569555235.5,286046998.6,N
1569555255.3,286046999.1,N
1569555275.1,286046999.5,N
1569555295.9,286046998.8,N
1569555315.7,286046999.8,N
1569555335.5,286047001.7,N
1569555355.4,286047000.1,N
1569555375.2,286046998.1,N
1569555395.1,286046998.3,N
1569555396.0,286046998.3,N
1569555415.8,286047001.2,N
1569555435.6,286047000.0,N
1569555455.5,286046999.2,N
1569555475.3,286046997.1,N
1569555495.1,286046999.6,N
1569555515.9,286046999.6,N
1569555535.7,286046997.0,N
1569555555.6,286046997.1,N
1569555575.4,286046997.4,N
1569555595.2,286046996.6,N
1569555615.1,286046996.7,N
1569555616.0,286046996.7,N
1569555635.8,286046999.4,N
1569555655.7,286046998.8,N
1569555675.5,286046998.3,N
1569555695.3,286047000.6,N
1569555715.2,286046999.8,N
1569555735.0,286047002.3,N
1569555735.9,286047002.3,N
1569555755.8,286047000.2,N
1569555775.6,286047000.5,N
1569555795.4,286046998.6,N
1569555815.3,286047000.4,N
1569555835.1,286047002.8,N
1569555855.8,286046999.9,N
1569555875.7,286047001.2,N
1569555895.5,286046998.4,N
1569555915.4,286047002.6,N
1569555935.2,286047002.7,N
1569555955.0,286047001.1,N
1569555955.9,286047001.1,N
1569555975.8,286047000.5,N
1569555995.6,286046998.8,N
1569556015.5,286046999.1,N
1569556035.3,286046999.9,N
1569556055.1,286046999.9,N
1569556075.9,286047000.4,N
1569556095.7,286047002.8,N
1569556145.6,286047001.3,E
1569556155.5,286047002.3,N
1569556175.3,286047000.7,P
1569556195.2,286047001.0,N
1569556215.0,286047001.2,N
1569556215.9,286047001.2,N
1569556235.8,286046998.4,Y
1569556255.6,286046997.5,P
1569556275.4,286046994.9,N
1569556295.3,286046997.6,N
1569556315.1,286046997.1,N
1569556335.8,286046996.7,N
1569556355.7,286046999.0,N
1569556375.5,286046999.2,N
1569556395.4,286046997.4,N
1569556415.2,286046996.0,N
1569556435.0,286046998.0,N
1569556435.9,286046998.0,N
1569556455.8,286046997.6,N
1569556475.6,286046995.0,Y
1569556495.5,286047001.1,P
1569556515.3,286046999.7,N
1569556535.1,286047002.8,N
1569556555.9,286047000.6,N
1569556575.7,286047000.3,N
1569556595.5,286047000.3,N
1569556615.4,286047001.0,N
1569556635.2,286046998.4,N
1569556655.1,286047000.5,N
1569556656.0,286047000.5,N
1569556675.8,286047000.9,N
1569556695.6,286047000.7,N
1569556715.5,286046998.2,N
1569556735.3,286047000.1,N
1569556755.2,286047001.0,N
1569556775.9,286047001.1,N
1569556795.7,286047011.9,Y
